Location: Bois de la Silve
(44.4667°N, 6.7833°E)
Time: 00:22:45
(UTC+00:00)

Meteor 1-29 - Pass Details

Date: 14 July 2020
Orbit: 440 x 459 km, 97.7° (Epoch: 03 August)

Event Time Altitude Azimuth Distance (km) Brightness Sun altitude
Rises 00:55:19 0° 5° (N) 2,463 8.0 -21.6°
Reaches altitude 10° 00:57:26 10° 357° (N) 1,589 6.6 -21.5°
Enters shadow 01:00:24 37° 297° (WNW) 721 3.9 -21.3°
